User: anonymous   Login
Location: Unspecified
(0.0000°N, 0.0000°E)
Time: 07:29:55
(UTC+00:00)
Language:

DNEPR OBJECT AD - Orbit

View from above orbital plane
View from above orbital plane
View from above satellite
View from above satellite

Ground track
Ground track

The orbit data is extracted from the following two-line orbital elements,

1 39443U 13066AD  17148.70469692 +.00000914 +00000-0 +90512-4 0  9998
2 39443 097.6565 214.6416 0023149 280.0595 079.8013 14.94089980189429
Epoch (UTC): 28 May 2017 16:54:45
Eccentricity: 0.0023149
inclination: 97.6565°
perigee height: 569 km
apogee height: 601 km
right ascension of ascending node: 214.6416°
argument of perigee: 280.0595°
revolutions per day: 14.94089980
mean anomaly at epoch: 79.8013°
orbit number at epoch: 18942

The dashed part of the orbit path shows where the satellite is in the earth's shadow,  

DLR